When you browse on this site, cookies collect data to enhance your experience and personalize the content and advertising you see.
Visit our Privacy Policy to learn more. By continuing to use the site, you agree to this use of cookies and data.
  • In Romania
  • List of Countries
  • For 7 days
  • Water Temperature
  • Satellite Maps
  • Weather Map
  • Weather Widgets
  • user-avatar
    Login

    Hourly Weather Wzorki

    Today, 22 February, Friday

    Time Temperature Precipitation Wind Pressure Humidity
    00:00 +3°C° 0.4 mm 5 mps 739 mmHg 87%
    01:00 +4°C° 0 mm 4 mps 739 mmHg 88%
    02:00 +4°C° 0.6 mm 4 mps 739 mmHg 89%
    03:00 +3°C° 0.6 mm 5 mps 739 mmHg 90%
    04:00 +3°C° 0.6 mm 5 mps 739 mmHg 90%
    05:00 +2°C° 0.5 mm 6 mps 739 mmHg 88%
    06:00 -1°C° 0.5 mm 7 mps 740 mmHg 85%
    07:00 -3°C° 0.5 mm 7 mps 741 mmHg 82%
    08:00 -3°C° 0.1 mm 7 mps 742 mmHg 76%
    09:00 -4°C° 0.1 mm 7 mps 744 mmHg 70%
    10:00 -4°C° 0.1 mm 7 mps 745 mmHg 64%
    11:00 -4°C° 0 mm 7 mps 746 mmHg 58%
    12:00 -4°C° 0 mm 7 mps 747 mmHg 52%
    13:00 -3°C° 0 mm 7 mps 748 mmHg 45%
    14:00 -4°C° 0 mm 7 mps 748 mmHg 45%
    15:00 -4°C° 0 mm 6 mps 749 mmHg 45%
    16:00 -5°C° 0 mm 6 mps 749 mmHg 45%
    17:00 -5°C° 0 mm 6 mps 750 mmHg 46%
    18:00 -6°C° 0 mm 6 mps 751 mmHg 46%
    19:00 -6°C° 0 mm 5 mps 751 mmHg 47%
    20:00 -7°C° 0 mm 5 mps 752 mmHg 44%
    21:00 -7°C° 0 mm 5 mps 753 mmHg 42%
    22:00 -7°C° 0 mm 5 mps 753 mmHg 39%
    23:00 -7°C° 0 mm 5 mps 754 mmHg 39%

    Tomorrow, 23 February, Saturday

    Time Temperature Precipitation Wind Pressure Humidity
    00:00 -7°C° 0 mm 5 mps 754 mmHg 40%
    01:00 -7°C° 0 mm 4 mps 754 mmHg 40%
    02:00 -7°C° 0 mm 4 mps 754 mmHg 42%
    03:00 -7°C° 0 mm 4 mps 755 mmHg 43%
    04:00 -6°C° 0 mm 3 mps 755 mmHg 45%
    05:00 -7°C° 0 mm 3 mps 755 mmHg 47%
    06:00 -7°C° 0 mm 3 mps 755 mmHg 48%
    07:00 -7°C° 0 mm 3 mps 755 mmHg 50%
    08:00 -6°C° 0 mm 3 mps 755 mmHg 47%
    09:00 -6°C° 0 mm 3 mps 756 mmHg 45%
    10:00 -5°C° 0 mm 3 mps 756 mmHg 42%
    11:00 -4°C° 0 mm 3 mps 756 mmHg 39%
    12:00 -4°C° 0 mm 3 mps 756 mmHg 36%
    13:00 -2°C° 0 mm 3 mps 756 mmHg 34%
    14:00 -2°C° 0 mm 2 mps 755 mmHg 34%
    15:00 -2°C° 0 mm 2 mps 755 mmHg 35%
    16:00 -2°C° 0 mm 2 mps 755 mmHg 35%
    17:00 -1°C° 0 mm 1 mps 755 mmHg 39%
    18:00 -1°C° 0 mm 1 mps 755 mmHg 42%
    19:00 -2°C° 0 mm 1 mps 755 mmHg 46%
    20:00 -2°C° 0 mm 1 mps 755 mmHg 47%
    21:00 -2°C° 0 mm 1 mps 755 mmHg 48%
    22:00 -3°C° 0 mm 0 mps 755 mmHg 49%
    23:00 -2°C° 0 mm 1 mps 755 mmHg 48%

    Day after tomorrow, 24 February, Sunday

    Time Temperature Precipitation Wind Pressure Humidity
    00:00 -2°C° 0 mm 1 mps 755 mmHg 48%
    01:00 -2°C° 0 mm 1 mps 755 mmHg 48%
    02:00 -2°C° 0 mm 1 mps 754 mmHg 47%
    03:00 -2°C° 0 mm 1 mps 754 mmHg 46%
    04:00 -1°C° 0 mm 1 mps 754 mmHg 44%
    05:00 -1°C° 0 mm 1 mps 754 mmHg 44%
    06:00 -1°C° 0 mm 1 mps 754 mmHg 44%
    07:00 -1°C° 0 mm 1 mps 754 mmHg 44%
    08:00 0°C° 0 mm 1 mps 754 mmHg 39%
    09:00 -1°C° 0 mm 2 mps 754 mmHg 35%
    10:00 +1°C° 0 mm 2 mps 753 mmHg 30%
    11:00 +2°C° 0 mm 2 mps 753 mmHg 28%
    12:00 +2°C° 0 mm 3 mps 753 mmHg 27%
    13:00 +3°C° 0 mm 3 mps 753 mmHg 25%
    14:00 +3°C° 0 mm 3 mps 753 mmHg 29%
    15:00 +4°C° 0 mm 2 mps 753 mmHg 33%
    16:00 +3°C° 0 mm 2 mps 752 mmHg 37%
    17:00 +2°C° 0 mm 2 mps 752 mmHg 40%
    18:00 +1°C° 0 mm 2 mps 752 mmHg 43%
    19:00 -1°C° 0 mm 2 mps 752 mmHg 47%
    20:00 -1°C° 0 mm 3 mps 753 mmHg 47%
    21:00 -1°C° 0 mm 3 mps 753 mmHg 48%
    22:00 -1°C° 0 mm 3 mps 753 mmHg 49%
    23:00 -1°C° 0 mm 3 mps 753 mmHg 50%

    25 February, Monday

    Time Temperature Precipitation Wind Pressure Humidity
    00:00 -1°C° 0 mm 3 mps 753 mmHg 52%
    01:00 -1°C° 0 mm 3 mps 753 mmHg 53%
    02:00 -2°C° 0 mm 4 mps 752 mmHg 54%
    03:00 -2°C° 0 mm 4 mps 752 mmHg 55%
    04:00 -2°C° 0 mm 4 mps 752 mmHg 56%
    05:00 -2°C° 0 mm 4 mps 752 mmHg 58%
    06:00 -2°C° 0 mm 4 mps 752 mmHg 60%
    07:00 -2°C° 0 mm 4 mps 752 mmHg 61%
    08:00 -1°C° 0 mm 4 mps 752 mmHg 60%
    09:00 0°C° 0 mm 4 mps 752 mmHg 58%
    10:00 +3°C° 0 mm 4 mps 752 mmHg 56%
    11:00 +4°C° 0 mm 4 mps 752 mmHg 58%
    12:00 +5°C° 0 mm 4 mps 751 mmHg 59%
    13:00 +5°C° 0 mm 4 mps 751 mmHg 61%
    14:00 +5°C° 0 mm 4 mps 751 mmHg 65%
    15:00 +5°C° 0 mm 4 mps 751 mmHg 69%
    16:00 +5°C° 0 mm 3 mps 751 mmHg 73%
    17:00 +4°C° 0 mm 3 mps 751 mmHg 79%
    18:00 +3°C° 0 mm 2 mps 751 mmHg 85%
    19:00 +2°C° 0 mm 2 mps 751 mmHg 90%
    20:00 +2°C° 0 mm 2 mps 751 mmHg 91%
    21:00 +2°C° 0 mm 2 mps 751 mmHg 92%
    22:00 +1°C° 0 mm 2 mps 751 mmHg 93%
    23:00 +1°C° 0 mm 2 mps 750 mmHg 93%

    26 February, Tuesday

    Time Temperature Precipitation Wind Pressure Humidity
    00:00 0°C° 0 mm 3 mps 750 mmHg 93%
    01:00 0°C° 0 mm 3 mps 749 mmHg 93%
    02:00 0°C° 0 mm 3 mps 749 mmHg 92%
    03:00 -1°C° 0 mm 4 mps 748 mmHg 92%
    04:00 0°C° 0 mm 4 mps 748 mmHg 91%
    05:00 0°C° 0 mm 5 mps 747 mmHg 89%
    06:00 -1°C° 0 mm 5 mps 746 mmHg 86%
    07:00 -2°C° 0 mm 6 mps 746 mmHg 83%
    08:00 -1°C° 0 mm 6 mps 746 mmHg 79%
    09:00 +1°C° 0 mm 6 mps 745 mmHg 74%
    10:00 +2°C° 0 mm 6 mps 745 mmHg 70%
    11:00 +2°C° 0.1 mm 6 mps 745 mmHg 71%
    12:00 +2°C° 0.1 mm 6 mps 745 mmHg 73%
    13:00 +2°C° 0.1 mm 6 mps 745 mmHg 74%
    14:00 +3°C° 0 mm 6 mps 744 mmHg 73%
    15:00 +3°C° 0 mm 6 mps 744 mmHg 72%
    16:00 +4°C° 0 mm 6 mps 744 mmHg 71%
    17:00 +3°C° 0 mm 6 mps 744 mmHg 75%
    18:00 +2°C° 0 mm 6 mps 744 mmHg 79%
    19:00 +2°C° 0 mm 6 mps 745 mmHg 83%
    20:00 +1°C° 0 mm 5 mps 745 mmHg 80%
    21:00 +1°C° 0 mm 5 mps 745 mmHg 77%
    22:00 0°C° 0 mm 5 mps 745 mmHg 74%
    23:00 0°C° 0 mm 5 mps 745 mmHg 76%

    27 February, Wednesday

    Time Temperature Precipitation Wind Pressure Humidity
    00:00 -1°C° 0 mm 5 mps 745 mmHg 78%
    01:00 -1°C° 0 mm 4 mps 745 mmHg 80%
    02:00 -2°C° 0 mm 4 mps 745 mmHg 83%
    03:00 -2°C° 0 mm 4 mps 745 mmHg 85%
    04:00 -2°C° 0 mm 4 mps 746 mmHg 88%
    05:00 -1°C° 0 mm 3 mps 746 mmHg 89%
    06:00 -2°C° 0 mm 3 mps 746 mmHg 90%
    07:00 -2°C° 0 mm 3 mps 746 mmHg 91%
    08:00 0°C° 0 mm 3 mps 746 mmHg 83%
    09:00 +1°C° 0 mm 3 mps 746 mmHg 75%
    10:00 +3°C° 0 mm 3 mps 746 mmHg 67%
    11:00 +4°C° 0 mm 3 mps 746 mmHg 61%
    12:00 +5°C° 0 mm 3 mps 746 mmHg 55%
    13:00 +7°C° 0 mm 3 mps 745 mmHg 49%
    14:00 +7°C° 0 mm 3 mps 745 mmHg 50%
    15:00 +7°C° 0 mm 3 mps 744 mmHg 50%
    16:00 +7°C° 0 mm 3 mps 744 mmHg 51%
    17:00 +5°C° 0 mm 3 mps 744 mmHg 56%
    18:00 +4°C° 0 mm 3 mps 743 mmHg 61%
    19:00 +3°C° 0 mm 3 mps 743 mmHg 66%
    20:00 +1°C° 0 mm 4 mps 742 mmHg 65%
    21:00 +1°C° 0 mm 4 mps 742 mmHg 64%
    22:00 +1°C° 0 mm 4 mps 741 mmHg 63%
    23:00 +1°C° 0 mm 5 mps 740 mmHg 60%
    Show more